Lid_Strength_Index
-0 0 1 3 11 12 13 12 8 9 9 6 5 7 8 7 9 13 2 0 -0 0 -0 -1 -2 -2 -2 -2 -2 -1 -1 -1 -1 -1 -1 -1 -1 -1 -2 -2 -2 -1 -2 -1 -2 -2 -2 -2 -2
2 1 2 7 13 15 13 9 10 8 7 5 6 6 7 9 5 4 3 0 -0 -0 -0 -0 -2 -2 -2 -2 -2 -1 -1 -1 -1 -1 -1 -2 -1 -1 -2 -2 -2 -2 -2 -2 -1 -1 -1 -2 -1
2 2 7 10 13 15 14 9 8 7 6 6 7 5 6 8 4 3 1 0 -0 0 -0 -0 -2 -2 -2 -2 -2 -1 -1 -1 -1 -1 -1 -1 -2 -2 -2 -1 -2 -2 -2 -2 -2 -1 -1 -1 -1
2 4 6 12 14 10 10 8 7 7 6 5 6 8 5 3 3 2 0 -0 0 0 -0 -1 -2 -2 -2 -2 -2 -2 -1 -1 -1 -1 -1 -1 -2 -2 -1 -1 -1 -1 -1 -1 -1 -2 -1 -1 -1
2 6 12 13 12 10 8 7 6 8 7 7 6 8 7 3 1 1 1 0 1 0 -0 -0 -2 -2 -2 -2 -1 -1 -1 -1 -1 -2 -2 -2 -2 -2 -1 -1 -1 -1 -1 -1 -1 -1 -1 -1 -1
7 7 13 14 12 9 8 7 7 7 7 6 7 7 6 2 2 1 0 0 -0 0 -0 -0 -1 -1 -1 -2 -1 -1 -2 -1 -1 -2 -2 -2 -1 -2 -2 -1 -1 -1 -1 -1 -1 -1 -1 -1 -1
8 10 13 11 11 10 9 6 7 7 7 7 5 9 6 4 2 1 1 0 0 -0 0 0 -0 -1 -2 -2 -2 -1 -1 -1 -1 -2 -1 -2 -1 -1 -1 -1 -1 -1 -1 -1 -1 -1 -1 -1 -1
7 9 12 11 12 11 7 6 5 6 7 4 4 9 8 4 1 1 1 1 1 1 1 1 1 0 0 -0 -1 -1 -1 -1 -1 -1 -1 -1 -1 -1 -1 -1 -2 -1 -1 -1 -1 -1 -1 -1 -1
4 11 14 12 12 10 7 7 5 4 5 5 4 5 4 2 1 2 2 2 1 1 1 1 1 1 0 0 -1 -1 -1 -1 -1 -1 -1 -1 0 0 -0 -1 -1 -1 -1 -1 -1 -1 -1 -2 -2
8 12 12 9 9 9 7 7 6 6 6 6 6 4 3 2 2 3 3 3 2 2 1 0 0 1 0 -0 0 0 -0 -0 0 0 1 1 0 0 -0 -1 -1 -1 -1 -1 -2 -2 -2 -1 -0
8 11 9 8 7 7 8 7 5 7 9 7 7 5 4 3 3 3 3 3 2 1 1 0 1 0 1 0 0 0 -0 -0 0 3 2 1 -0 1 0 0 2 1 -1 -0 -1 -1 -0 -0 -0
10 8 8 7 7 7 8 6 7 7 6 4 4 4 4 4 4 3 3 3 2 2 3 1 1 1 0 0 0 0 0 0 -0 0 -0 2 3 1 0 -0 0 1 1 0 0 0 0 1 -0
9 8 7 6 6 7 6 7 7 6 4 4 4 4 4 4 3 3 2 2 2 2 1 1 1 1 -0 0 0 0 1 1 1 0 -0 1 2 1 -0 -0 0 0 0 1 0 0 1 1 1
7 7 7 7 7 7 7 7 7 6 4 4 4 4 4 4 3 3 3 3 2 2 1 0 1 0 0 1 1 1 1 1 1 1 1 -1 0 0 -0 0 0 0 1 1 1 1 1 1 1
7 10 9 8 8 8 6 9 9 6 4 5 5 4 4 4 3 3 3 2 2 2 1 1 1 1 0 1 1 1 1 -0 0 1 0 -0 0 1 1 0 1 2 0 0 0 0 0 0 -0
9 9 14 9 8 7 7 13 7 5 5 6 5 5 4 4 3 3 2 2 2 1 1 1 0 1 1 1 1 1 1 0 0 -0 -0 1 -1 0 0 1 2 -0 1 1 0 1 1 1 1
11 15 14 12 8 8 9 12 8 5 6 6 6 5 5 4 4 3 2 2 1 1 2 2 1 1 1 1 1 0 0 1 3 2 -0 -0 -0 -0 1 2 1 0 0 2 1 1 2 1 1
15 15 13 13 10 9 11 11 8 6 6 7 6 5 5 5 4 3 2 2 1 1 1 1 1 1 1 0 1 0 1 0 -0 1 0 1 1 1 3 0 1 1 1 0 2 2 1 1 1
10 12 13 12 9 11 11 11 9 7 7 7 7 6 5 5 3 3 2 2 2 1 1 1 1 1 1 2 2 2 2 1 0 1 1 2 1 2 1 0 1 0 1 1 1 1 1 2 1
9 12 13 11 10 11 11 11 9 8 7 7 7 6 6 5 4 3 3 2 2 2 2 1 1 1 1 1 1 1 1 0 1 0 0 1 2 2 1 0 1 2 2 3 2 1 2 1 2
11 12 13 13 11 10 11 13 11 8 7 7 6 6 6 5 5 4 3 3 2 2 2 1 1 1 1 1 1 1 1 1 2 1 1 1 0 -0 0 0 2 4 3 4 2 1 1 3 2
14 9 10 12 13 17 11 19 13 10 9 8 7 7 6 6 4 4 4 3 3 2 1 1 1 1 1 1 1 2 2 3 2 2 1 1 0 1 0 0 2 3 2 2 1 0 1 3 3
12 9 10 11 14 14 14 16 14 11 11 9 8 7 6 5 5 4 4 3 2 2 2 1 1 1 1 1 1 2 2 2 1 1 1 1 1 0 0 0 0 1 1 1 1 1 1 2 4
8 10 11 12 14 19 15 15 16 14 11 9 8 7 6 5 5 4 3 3 3 2 2 1 1 1 1 1 1 2 2 2 2 2 2 1 1 1 1 0 0 0 2 2 1 1 1 4 3
9 12 17 20 19 19 14 16 14 11 8 8 8 7 5 5 5 4 4 4 3 3 2 2 2 2 1 1 1 1 1 2 2 2 2 2 2 1 1 0 1 0 1 1 1 1 1 1 1
10 11 16 21 20 17 14 17 14 9 7 7 6 6 5 5 5 4 4 3 3 3 2 2 2 2 1 1 1 1 1 2 1 1 1 1 1 1 1 0 1 0 0 1 1 1 1 2 1
10 12 9 14 15 15 16 14 10 9 9 8 7 7 6 5 5 4 4 3 3 3 2 2 2 2 2 1 1 1 1 1 1 1 1 1 1 0 0 0 0 1 0 0 1 1 1 1 1
10 10 14 16 18 19 16 16 16 12 11 9 8 8 7 5 5 4 4 3 3 2 2 2 1 2 1 1 1 1 1 1 1 1 1 1 1 0 0 0 0 0 1 1 2 1 1 1 1
12 14 14 14 15 16 18 16 10 10 10 9 8 7 6 6 5 4 4 3 3 2 2 2 2 2 2 1 1 1 1 1 1 1 1 1 1 2 1 1 1 1 1 1 1 1 1 1 2
12 13 14 16 16 16 14 16 9 9 8 8 8 6 6 5 5 4 4 3 3 3 2 3 2 2 2 1 1 1 1 1 1 1 1 1 1 1 1 1 1 1 1 0 1 1 1 1 2